Weather History for Muscatine, IA

Change the Weather History Date:

Monday, February 11, 2013

  Actual Average Record
Temperature  
Mean Temperature 34 °F -  
Max Temperature 37 °F 34 °F 66 °F (1999)
Min Temperature 30 °F 17 °F -22 °F (2014)
Degree Days  
Heating Degree Days 30    
Moisture  
Dew Point 22 °F    
Average Humidity 62    
Maximum Humidity 70    
Minimum Humidity 56    
Precipitation  
Precipitation 0.00 in - - ()
Sea Level Pressure  
Sea Level Pressure 29.90 in    
Wind  
Wind Speed 24 mph (West)    
Max Wind Speed 32 mph    
Max Gust Speed 45 mph    
Visibility 10 miles    
Events      
Averages and records for this station are not official NWS values.
T = Trace of Precipitation, MM = Missing Value Source: NWS Daily Summary

Daily Weather History Graph

Daily Weather History Graph

Search for Another Location

Airport:

Trip Planner

Search our weather history database for the weather conditions in past years. The results will help you decide how hot, cold, wet, or windy it might be!

Date:

Astronomy

Feb. 11, 2013 Rise Set
Actual Time 7:04 AM CST 5:33 PM CST
Civil Twilight 6:35 AM CST 6:02 PM CST
Nautical Twilight 6:03 AM CST 6:34 PM CST
Astronomical Twilight 5:31 AM CST 7:07 PM CST
Moon 7:27 AM CST (2/11) 7:32 PM CST (2/11)
Length of Visible Light 11h 26m
Length of Day
10h 29m
Waxing Crescent, 3% of the Moon is Illuminated
Feb 11
Waxing Crescent
Feb 17
First Quarter
Feb 25
Full
Mar 4
Last Quarter
Mar 11
New

Hourly Weather History & Observations

Time (CST) Temp. Windchill Dew Point Humidity Pressure Visibility Wind Dir Wind Speed Gust Speed Precip Events Conditions
12:15 AM 37.4 °F 25.6 °F 26.6 °F 65% 29.59 in 10.0 mi WSW 26.5 mph 40.3 mph N/A   Overcast
12:35 AM 37.4 °F 25.4 °F 26.6 °F 65% 29.60 in 10.0 mi WSW 27.6 mph 38.0 mph N/A   Overcast
12:55 AM 37.4 °F 26.4 °F 26.6 °F 65% 29.61 in 10.0 mi WSW 23.0 mph 29.9 mph N/A   Overcast
1:15 AM 35.6 °F 23.7 °F 26.6 °F 70% 29.61 in 10.0 mi WSW 24.2 mph 36.8 mph N/A   Overcast
1:35 AM 35.6 °F 22.7 °F 26.6 °F 70% 29.62 in 10.0 mi WSW 28.8 mph 39.1 mph N/A   Overcast
1:55 AM 35.6 °F 22.1 °F 24.8 °F 65% 29.64 in 10.0 mi WSW 32.2 mph 44.9 mph N/A   Overcast
2:15 AM 35.6 °F 22.3 °F 24.8 °F 65% 29.64 in 10.0 mi West 31.1 mph 42.6 mph N/A   Overcast
2:35 AM 35.6 °F 23.0 °F 24.8 °F 65% 29.66 in 10.0 mi WSW 27.6 mph 34.5 mph N/A   Overcast
2:55 AM 35.6 °F 23.7 °F 23.0 °F 60% 29.67 in 10.0 mi WSW 24.2 mph 32.2 mph N/A   Overcast
3:15 AM 35.6 °F 23.0 °F 21.2 °F 56% 29.66 in 10.0 mi West 27.6 mph 34.5 mph N/A   Overcast
3:35 AM 35.6 °F 23.4 °F 23.0 °F 60% 29.67 in 10.0 mi WSW 25.3 mph 34.5 mph N/A   Overcast
3:55 AM 35.6 °F 23.2 °F 23.0 °F 60% 29.68 in 10.0 mi WSW 26.5 mph 33.4 mph N/A   Overcast
4:15 AM 35.6 °F 23.0 °F 23.0 °F 60% 29.69 in 10.0 mi West 27.6 mph 34.5 mph N/A   Overcast
4:35 AM 35.6 °F 23.2 °F 23.0 °F 60% 29.70 in 10.0 mi West 26.5 mph 35.7 mph N/A   Overcast
4:55 AM 35.6 °F 23.2 °F 23.0 °F 60% 29.71 in 10.0 mi West 26.5 mph 36.8 mph N/A   Overcast
5:15 AM 35.6 °F 23.7 °F 23.0 °F 60% 29.71 in 10.0 mi West 24.2 mph 33.4 mph N/A   Overcast
5:35 AM 35.6 °F 23.0 °F 23.0 °F 60% 29.72 in 10.0 mi West 27.6 mph 39.1 mph N/A   Overcast
5:55 AM 35.6 °F 22.5 °F 23.0 °F 60% 29.73 in 10.0 mi West 29.9 mph 36.8 mph N/A   Overcast
6:15 AM 33.8 °F 20.8 °F 21.2 °F 60% 29.74 in 10.0 mi West 26.5 mph 40.3 mph N/A   Overcast
6:35 AM 33.8 °F 20.5 °F 23.0 °F 65% 29.76 in 10.0 mi West 27.6 mph 35.7 mph N/A   Overcast
6:55 AM 33.8 °F 20.5 °F 21.2 °F 60% 29.77 in 10.0 mi West 27.6 mph 40.3 mph N/A   Overcast
7:15 AM 33.8 °F 20.5 °F 23.0 °F 65% 29.78 in 10.0 mi West 27.6 mph 39.1 mph N/A   Overcast
7:35 AM 33.8 °F 21.3 °F 21.2 °F 60% 29.80 in 10.0 mi West 24.2 mph 42.6 mph N/A   Overcast
7:55 AM 33.8 °F 20.1 °F 21.2 °F 60% 29.81 in 10.0 mi West 29.9 mph 34.5 mph N/A   Overcast
8:15 AM 33.8 °F 20.1 °F 21.2 °F 60% 29.82 in 10.0 mi West 29.9 mph 40.3 mph N/A   Overcast
8:35 AM 33.8 °F 20.5 °F 21.2 °F 60% 29.84 in 10.0 mi West 27.6 mph 31.1 mph N/A   Overcast
8:55 AM 33.8 °F 20.5 °F 21.2 °F 60% 29.85 in 10.0 mi West 27.6 mph 41.4 mph N/A   Overcast
9:15 AM 33.8 °F 20.5 °F 21.2 °F 60% 29.86 in 10.0 mi West 27.6 mph 34.5 mph N/A   Overcast
9:35 AM 33.8 °F 20.8 °F 21.2 °F 60% 29.87 in 10.0 mi West 26.5 mph 33.4 mph N/A   Overcast
9:55 AM 33.8 °F 20.8 °F 21.2 °F 60% 29.89 in 10.0 mi West 26.5 mph 39.1 mph N/A   Overcast
10:15 AM 33.8 °F 22.2 °F 21.2 °F 60% 29.90 in 10.0 mi West 20.7 mph 38.0 mph N/A   Overcast
10:35 AM 33.8 °F 19.9 °F 21.2 °F 60% 29.91 in 10.0 mi West 31.1 mph 35.7 mph N/A   Overcast
10:55 AM 33.8 °F 21.6 °F 21.2 °F 60% 29.93 in 10.0 mi WNW 23.0 mph 33.4 mph N/A   Overcast
11:15 AM 33.8 °F 21.0 °F 21.2 °F 60% 29.93 in 10.0 mi West 25.3 mph 35.7 mph N/A   Overcast
11:35 AM 35.6 °F 24.2 °F 21.2 °F 56% 29.94 in 10.0 mi West 21.9 mph 31.1 mph N/A   Overcast
11:55 AM 33.8 °F 20.8 °F 21.2 °F 60% 29.94 in 10.0 mi West 26.5 mph 35.7 mph N/A   Overcast
12:15 PM 33.8 °F 21.0 °F 21.2 °F 60% 29.94 in 10.0 mi WNW 25.3 mph 32.2 mph N/A   Overcast
12:35 PM 35.6 °F 24.0 °F 21.2 °F 56% 29.95 in 10.0 mi WNW 23.0 mph 33.4 mph N/A   Overcast
12:55 PM 35.6 °F 24.2 °F 21.2 °F 56% 29.95 in 10.0 mi WNW 21.9 mph 31.1 mph N/A   Overcast
1:15 PM 35.6 °F 23.4 °F 21.2 °F 56% 29.95 in 10.0 mi WNW 25.3 mph 31.1 mph N/A   Overcast
1:35 PM 35.6 °F 23.7 °F 21.2 °F 56% 29.96 in 10.0 mi West 24.2 mph 32.2 mph N/A   Overcast
1:55 PM 33.8 °F 21.3 °F 21.2 °F 60% 29.97 in 10.0 mi WNW 24.2 mph 32.2 mph N/A   Overcast
2:15 PM 33.8 °F 22.5 °F 21.2 °F 60% 29.98 in 10.0 mi WNW 19.6 mph 35.7 mph N/A   Overcast
2:35 PM 35.6 °F 24.8 °F 21.2 °F 56% 29.98 in 10.0 mi WNW 19.6 mph - N/A   Overcast
2:55 PM 33.8 °F 21.6 °F 21.2 °F 60% 29.99 in 10.0 mi WNW 23.0 mph 31.1 mph N/A   Overcast
3:15 PM 33.8 °F 21.6 °F 21.2 °F 60% 30.00 in 10.0 mi West 23.0 mph 34.5 mph N/A   Overcast
3:35 PM 33.8 °F 22.8 °F 23.0 °F 65% 30.01 in 10.0 mi WNW 18.4 mph 31.1 mph N/A   Overcast
3:55 PM 33.8 °F 21.9 °F 21.2 °F 60% 30.01 in 10.0 mi West 21.9 mph 29.9 mph N/A   Overcast
4:55 PM 33.8 °F 20.8 °F 21.2 °F 60% 30.03 in 10.0 mi West 26.5 mph 32.2 mph N/A   Overcast
5:15 PM 33.8 °F 22.2 °F 21.2 °F 60% 30.04 in 10.0 mi West 20.7 mph 26.5 mph N/A   Overcast
5:35 PM 33.8 °F 22.5 °F 21.2 °F 60% 30.04 in 10.0 mi West 19.6 mph 26.5 mph N/A   Overcast
5:55 PM 33.8 °F 23.5 °F 21.2 °F 60% 30.05 in 10.0 mi West 16.1 mph 21.9 mph N/A   Overcast
6:15 PM 33.8 °F 23.2 °F 21.2 °F 60% 30.05 in 10.0 mi West 17.3 mph 25.3 mph N/A   Overcast
6:35 PM 33.8 °F 23.2 °F 23.0 °F 65% 30.06 in 10.0 mi West 17.3 mph - N/A   Overcast
6:55 PM 33.8 °F 24.8 °F 23.0 °F 65% 30.07 in 10.0 mi West 12.7 mph - N/A   Overcast
7:15 PM 33.8 °F 22.8 °F 21.2 °F 60% 30.07 in 10.0 mi West 18.4 mph 25.3 mph N/A   Overcast
7:35 PM 33.8 °F 22.5 °F 21.2 °F 60% 30.07 in 10.0 mi WNW 19.6 mph 23.0 mph N/A   Overcast
7:55 PM 33.8 °F 23.2 °F 21.2 °F 60% 30.08 in 10.0 mi WNW 17.3 mph 26.5 mph N/A   Overcast
8:15 PM 33.8 °F 23.9 °F 21.2 °F 60% 30.08 in 10.0 mi West 15.0 mph - N/A   Overcast
8:35 PM 33.8 °F 24.8 °F 23.0 °F 65% 30.09 in 10.0 mi WNW 12.7 mph 23.0 mph N/A   Overcast
8:55 PM 32.0 °F 22.5 °F 21.2 °F 64% 30.08 in 10.0 mi WNW 12.7 mph 20.7 mph N/A   Overcast
9:15 PM 32.0 °F 24.2 °F 21.2 °F 64% 30.09 in 10.0 mi WNW 9.2 mph - N/A   Overcast
9:35 PM 32.0 °F 24.8 °F 23.0 °F 69% 30.09 in 10.0 mi WNW 8.1 mph - N/A   Overcast
9:55 PM 32.0 °F 21.6 °F 23.0 °F 69% 30.09 in 10.0 mi WNW 15.0 mph - N/A   Overcast
10:15 PM 32.0 °F 21.6 °F 21.2 °F 64% 30.09 in 10.0 mi West 15.0 mph - N/A   Overcast
10:35 PM 32.0 °F 22.5 °F 21.2 °F 64% 30.10 in 10.0 mi West 12.7 mph - N/A   Overcast
10:55 PM 32.0 °F 22.1 °F 21.2 °F 64% 30.10 in 10.0 mi West 13.8 mph 19.6 mph N/A   Overcast
11:15 PM 32.0 °F 23.0 °F 21.2 °F 64% 30.11 in 10.0 mi West 11.5 mph - N/A   Overcast
11:35 PM 32.0 °F 22.5 °F 21.2 °F 64% 30.12 in 10.0 mi West 12.7 mph - N/A   Overcast
11:55 PM 30.2 °F 19.3 °F 21.2 °F 69% 30.12 in 10.0 mi West 15.0 mph - N/A   Overcast